Date String (YYYY-MM-DD hh:mm:ss) UTC,Instrument flags,Ambient pressure (hPa),Sample flow (lpm),Bypass flow (lpm),Sample temperature (°C),Ambient temperature (°C),ASC tube jacket temperature (°C),LED temperature (°C),Box temperature (°C),Sample RH (%),Span deviation,Mass concentration (μg/m³),Mass concentration (μg/m³),Mass concentration (μg/m³)
DateTimeUTC,F1_M11,P_M11,Q1_M11,Q2_M11,T1_M11,T2_M11,T3_M11,T4_M11,T5_M11,U1_M11,ZSPAN_M11,X2_M11,X0_M11,X1_M11
2022-11-16 09:00:00,,0833.1,5.00,0.00,21.8,20.6,00.0,30.8,23.6,06.8,0000.0,0001.42,0001.88,0001.27
2022-11-16 09:01:00,,0833.1,4.99,0.00,21.9,21.6,00.0,30.7,23.8,06.8,0000.0,0001.43,0001.89,0001.28
2022-11-16 09:02:00,,0833.1,5.00,0.00,22.0,22.0,00.0,30.8,24.0,06.7,0000.0,0001.43,0001.89,0001.29
2022-11-16 09:03:00,,0833.1,5.00,0.00,22.0,21.7,00.0,30.8,23.9,06.6,0000.0,0001.42,0001.87,0001.29
2022-11-16 09:04:00,,0833.1,5.00,0.00,22.0,21.3,00.0,30.9,23.8,06.6,0000.0,0001.40,0001.94,0001.28
2022-11-16 09:05:00,,0833.1,5.00,0.00,22.0,21.1,00.0,30.9,23.8,06.7,0000.0,0001.40,0001.93,0001.28
2022-11-16 09:06:00,,0833.1,5.00,0.00,22.0,20.8,00.0,30.9,23.7,06.5,0000.0,0001.42,0002.01,0001.28
2022-11-16 09:07:00,,0833.1,4.99,0.00,21.9,20.7,00.0,30.9,23.6,06.3,0000.0,0001.38,0001.93,0001.26
2022-11-16 09:08:00,,0833.1,5.01,0.00,21.9,20.5,00.0,30.9,23.6,06.3,0000.0,0001.34,0001.86,0001.25
2022-11-16 09:09:00,,0833.1,5.01,0.00,21.9,20.3,00.0,30.9,23.5,06.5,0000.0,0001.32,0001.91,0001.24
2022-11-16 09:10:00,,0833.1,5.00,0.00,21.8,20.3,00.0,30.8,23.5,06.6,0000.0,0001.32,0001.93,0001.22
2022-11-16 09:11:00,,0833.1,5.00,0.00,21.9,21.0,00.0,30.8,23.6,06.7,0000.0,0001.31,0001.92,0001.21
2022-11-16 09:12:00,,0833.2,5.00,0.00,22.0,21.9,00.0,30.7,23.9,06.8,0000.0,0001.32,0001.94,0001.21
2022-11-16 09:13:00,,0833.1,4.98,0.00,22.1,22.0,00.0,30.8,24.0,06.6,0000.0,0001.33,0001.96,0001.21
2022-11-16 09:14:00,,0833.1,5.00,0.00,22.1,21.6,00.0,30.8,24.0,06.5,0000.0,0001.34,0002.00,0001.20
2022-11-16 09:15:00,,0833.1,5.01,0.00,22.0,21.2,00.0,30.9,23.9,06.6,0000.0,0001.34,0001.92,0001.21
2022-11-16 09:16:00,,0833.2,5.00,0.00,22.0,21.0,00.0,30.9,23.8,06.7,0000.0,0001.33,0001.90,0001.20
2022-11-16 09:17:00,,0833.1,4.99,0.00,22.0,20.8,00.0,30.9,23.7,06.8,0000.0,0001.29,0001.80,0001.18
2022-11-16 09:18:00,,0833.1,5.01,0.00,22.0,20.6,00.0,30.9,23.7,07.0,0000.0,0001.29,0001.79,0001.19
2022-11-16 09:19:00,,0833.2,5.01,0.00,21.9,20.5,00.0,30.9,23.7,07.1,0000.0,0001.30,0001.81,0001.20
2022-11-16 09:20:00,,0833.2,5.00,0.00,21.9,20.4,00.0,30.9,23.6,07.0,0000.0,0001.33,0001.78,0001.21
2022-11-16 09:21:00,,0833.1,5.00,0.00,21.9,20.3,00.0,30.9,23.5,06.8,0000.0,0001.35,0001.81,0001.22
2022-11-16 09:22:00,,0833.2,5.01,0.00,21.9,20.8,00.0,30.8,23.6,06.8,0000.0,0001.34,0001.80,0001.22
2022-11-16 09:23:00,,0833.2,5.00,0.00,22.0,21.8,00.0,30.8,23.9,06.7,0000.0,0001.33,0001.80,0001.21
2022-11-16 09:24:00,,0833.2,4.99,0.00,22.1,22.0,00.0,30.8,24.0,07.0,0000.0,0001.31,0001.76,0001.20
2022-11-16 09:25:00,,0833.1,5.00,0.00,22.1,21.6,00.0,30.9,24.0,07.4,0000.0,0001.30,0001.73,0001.20
2022-11-16 09:26:00,,0833.2,5.00,0.00,22.1,21.3,00.0,30.9,23.9,07.6,0000.0,0001.29,0001.73,0001.19
2022-11-16 09:27:00,,0833.2,5.00,0.00,22.0,21.0,00.0,30.9,23.8,07.6,0000.0,0001.29,0001.72,0001.18
2022-11-16 09:28:00,,0833.2,5.00,0.00,22.0,20.8,00.0,30.9,23.8,07.5,0000.0,0001.28,0001.70,0001.18
2022-11-16 09:29:00,,0833.2,5.00,0.00,22.0,20.6,00.0,30.9,23.7,07.5,0000.0,0001.29,0001.84,0001.18
2022-11-16 09:30:00,,0833.2,5.00,0.00,22.0,20.5,00.0,30.9,23.7,07.7,0000.0,0001.29,0002.30,0001.17
2022-11-16 09:31:00,,0833.2,5.00,0.00,21.9,20.4,00.0,30.9,23.7,07.8,0000.0,0001.25,0002.22,0001.15
2022-11-16 09:32:00,,0833.2,5.00,0.00,21.9,20.3,00.0,30.9,23.7,07.7,0000.0,0001.23,0002.19,0001.14
2022-11-16 09:33:00,,0833.2,5.00,0.00,21.9,20.4,00.0,30.9,23.6,07.4,0000.0,0001.23,0002.17,0001.14
2022-11-16 09:34:00,,0833.2,5.01,0.00,21.9,21.2,00.0,30.8,23.8,07.2,0000.0,0001.21,0002.15,0001.13
2022-11-16 09:35:00,,0833.3,5.01,0.00,22.0,22.1,00.0,30.8,24.0,06.9,0000.0,0001.21,0002.15,0001.12
2022-11-16 09:36:00,,0833.3,4.98,0.00,22.1,22.1,00.0,30.8,24.1,06.9,0000.0,0001.22,0002.16,0001.12
2022-11-16 09:37:00,,0833.3,4.99,0.00,22.1,21.7,00.0,30.9,24.0,06.9,0000.0,0001.22,0002.17,0001.11
2022-11-16 09:38:00,,0833.3,5.01,0.00,22.1,21.4,00.0,30.9,24.0,06.7,0000.0,0001.20,0002.46,0001.09
2022-11-16 09:39:00,,0833.2,5.00,0.00,22.1,21.1,00.0,30.9,23.9,06.7,0000.0,0001.21,0003.38,0001.09
2022-11-16 09:40:00,,0833.2,5.00,0.00,22.0,20.9,00.0,30.9,23.8,06.7,0000.0,0001.19,0003.29,0001.07
2022-11-16 09:41:00,,0833.3,5.00,0.00,22.0,20.7,00.0,30.9,23.8,06.6,0000.0,0001.16,0002.73,0001.06
2022-11-16 09:42:00,,0833.2,4.99,0.00,22.0,20.6,00.0,30.9,23.8,06.7,0000.0,0001.15,0002.71,0001.04
2022-11-16 09:43:00,,0833.2,5.00,0.00,22.0,20.5,00.0,30.9,23.7,06.7,0000.0,0001.13,0002.65,0001.03
2022-11-16 09:44:00,,0833.3,5.01,0.00,22.0,20.4,00.0,30.9,23.7,06.8,0000.0,0001.11,0002.62,0001.03
2022-11-16 09:45:00,,0833.3,5.00,0.00,21.9,20.3,00.0,30.9,23.7,06.9,0000.0,0001.10,0002.60,0001.02
2022-11-16 09:46:00,,0833.3,5.01,0.00,21.9,20.5,00.0,30.9,23.7,06.9,0000.0,0001.11,0002.63,0001.01
2022-11-16 09:47:00,,0833.3,5.01,0.00,22.0,21.3,00.0,30.8,23.8,06.7,0000.0,0001.10,0002.62,0001.01
2022-11-16 09:48:00,,0833.2,5.00,0.00,22.1,22.1,00.0,30.8,24.0,06.4,0000.0,0001.09,0002.60,0001.02
2022-11-16 09:49:00,,0833.3,5.00,0.00,22.1,21.9,00.0,30.9,24.1,06.5,0000.0,0001.08,0002.57,0001.02
2022-11-16 09:50:00,,0833.2,5.00,0.00,22.1,21.6,00.0,30.9,24.0,06.9,0000.0,0001.07,0001.47,0001.02
2022-11-16 09:51:00,,0833.3,4.99,0.00,22.1,21.3,00.0,30.9,23.9,06.8,0000.0,0001.07,0001.36,0001.02
2022-11-16 09:52:00,,0833.3,4.99,0.00,22.1,21.0,00.0,31.0,23.9,06.3,0000.0,0001.09,0001.41,0001.03
2022-11-16 09:53:00,,0833.2,5.00,0.00,22.0,20.8,00.0,31.0,23.9,06.2,0000.0,0001.10,0001.43,0001.03
2022-11-16 09:54:00,,0833.3,5.01,0.00,22.0,20.7,00.0,31.0,23.8,06.3,0000.0,0001.11,0001.44,0001.04
2022-11-16 09:55:00,,0833.3,5.01,0.00,22.0,20.6,00.0,30.9,23.8,06.4,0000.0,0001.10,0001.45,0001.03
2022-11-16 09:56:00,,0833.3,5.01,0.00,22.0,20.5,00.0,30.9,23.7,06.2,0000.0,0001.10,0001.45,0001.03
2022-11-16 09:57:00,,0833.3,4.99,0.00,21.9,20.4,00.0,30.9,23.7,06.0,0000.0,0001.10,0001.42,0001.04
2022-11-16 09:58:00,,0833.3,5.00,0.00,21.9,20.4,00.0,30.9,23.7,05.9,0000.0,0001.08,0001.38,0001.02
2022-11-16 09:59:00,,0833.3,5.01,0.00,21.9,20.6,00.0,30.9,23.7,05.9,0000.0,0001.06,0001.38,0001.01
